Location: Bremen
(53.0793°N, 8.8017°E)
Time: 02:52:40
(UTC+01:00)

deb Explorer IX - Pass Details

Date: 11 December 2021
Orbit: 544 x 1082 km, 38.8° (Epoch: 16 January)

Event Time Altitude Azimuth Distance (km) Brightness Sun altitude
Rises 08:07:41 0° 220° (SW) 3,468 ? -3.3°
Reaches altitude 10° 08:11:42 10° 196° (SSW) 2,397 ? -2.8°
Maximum altitude 08:14:22 14° 167° (SSE) 2,064 ? -2.5°
Drops below altitude 10° 08:16:53 10° 138° (SE) 2,219 ? -2.2°
Sets 08:20:19 0° 112° (ESE) 3,020 ? -1.8°
